EW2974 Weather Reports


Display with metric or nautical units.
time (UTC)temp
F
wind
direction
speed
MPH
gust
MPH
rain 1hr
in
rain 24hr
in
rain mn
in
humidity
%
barometer
mb
20201026205910 49 236 0.0 0.0 0.00 0.00 0.00 86 1019.4
20201026205405 49 236 0.0 0.0 0.00 0.00 0.00 86 1019.3
20201026204904 49 236 0.0 0.0 0.00 0.00 0.00 86 1019.3
20201026204405 48 236 0.0 0.0 0.00 0.00 0.00 86 1019.6
20201026203905 48 236 0.0 0.0 0.00 0.00 0.00 85 1019.7
20201026201914 49 236 0.0 0.0 0.00 0.00 0.00 85 1019.9
20201026201404 49 236 0.0 0.0 0.00 0.00 0.00 85 1019.8
20201026200911 49 236 0.0 0.0 0.00 0.00 0.00 84 1019.7
20201026200406 49 236 0.0 0.0 0.00 0.00 0.00 84 1019.8
20201026195405 49 238 0.0 0.0 0.00 0.00 0.00 84 1019.6
20201026194904 49 168 0.0 0.0 0.00 0.00 0.00 85 1019.6
20201026193911 49 267 0.0 0.0 0.00 0.00 0.00 85 1019.3
20201026193407 48 267 0.0 0.0 0.00 0.00 0.00 85 1019.3
20201026192406 48 266 0.0 0.0 0.00 0.00 0.00 85 1019.2
20201026191914 49 277 0.0 0.0 0.00 0.00 0.00 85 1019.2
20201026191405 48 325 0.0 0.0 0.00 0.00 0.00 85 1019.2
20201026190905 48 325 0.0 0.0 0.00 0.00 0.00 85 1019.2
20201026190403 48 325 0.0 0.0 0.00 0.00 0.00 85 1019.2
20201026185906 48 346 0.0 0.0 0.00 0.00 0.00 85 1019.3
20201026185411 48 315 0.0 0.0 0.00 0.00 0.00 85 1019.2
20201026184905 48 315 0.0 0.0 0.00 0.00 0.00 85 1019.2
20201026184413 48 315 0.0 0.0 0.00 0.00 0.00 85 1019.1
20201026183904 48 56 0.0 0.0 0.00 0.00 0.00 85 1019.0
20201026181908 49 256 0.0 0.0 0.00 0.00 0.00 84 1019.1
20201026181403 49 251 0.0 0.0 0.00 0.00 0.00 84 1019.1
20201026180904 49 250 0.0 0.0 0.00 0.00 0.00 84 1019.0
20201026180404 49 250 0.0 0.0 0.00 0.00 0.00 84 1018.8
20201026175905 49 253 0.0 0.0 0.00 0.00 0.00 84 1018.8
20201026173404 49 261 0.0 0.0 0.00 0.00 0.00 84 1018.9
20201026172906 49 261 0.0 0.0 0.00 0.00 0.00 84 1018.6
20201026172407 49 265 0.0 0.0 0.00 0.00 0.00 84 1018.7
20201026171904 49 265 0.0 0.0 0.00 0.00 0.00 84 1018.7
20201026171404 49 265 0.0 0.0 0.00 0.00 0.00 84 1018.8
20201026170905 49 265 0.0 0.0 0.00 0.00 0.00 85 1018.7
20201026170404 49 265 0.0 0.0 0.00 0.00 0.00 85 1018.6
20201026165903 49 265 0.0 0.0 0.00 0.00 0.00 85 1018.8
20201026165405 49 265 0.0 0.0 0.00 0.00 0.00 85 1018.7
20201026164909 49 265 0.0 0.0 0.00 0.00 0.00 86 1018.8
20201026164405 49 265 0.0 0.0 0.00 0.00 0.00 86 1018.8
20201026163903 48 260 0.0 0.0 0.00 0.00 0.00 86 1019.0
20201026163404 48 260 0.0 0.0 0.00 0.00 0.00 86 1018.8
20201026162904 48 264 0.0 0.0 0.00 0.00 0.00 87 1018.7
20201026162404 48 250 0.0 0.0 0.00 0.00 0.00 87 1018.6
20201026161407 48 250 0.0 0.0 0.00 0.00 0.00 87 1018.5
20201026160910 48 250 0.0 0.0 0.00 0.00 0.00 88 1018.6
20201026160404 48 250 0.0 0.0 0.00 0.00 0.00 88 1018.5
20201026155907 48 250 0.0 0.0 0.00 0.00 0.00 88 1018.5
20201026155405 48 250 0.0 0.0 0.00 0.00 0.00 89 1018.7
20201026154905 48 249 0.0 0.0 0.00 0.00 0.00 89 1018.8
20201026153908 48 255 0.0 0.0 0.00 0.00 0.00 89 1018.7
20201026153406 48 255 0.0 0.0 0.00 0.00 0.00 89 1018.7
20201026152909 47 255 0.0 0.0 0.00 0.01 0.00 89 1018.6
20201026151906 47 255 0.0 0.0 0.00 0.01 0.00 89 1018.8
20201026151407 46 256 0.0 0.0 0.00 0.01 0.00 89 1019.0
20201026150905 46 256 0.0 0.0 0.00 0.01 0.00 89 1019.4
20201026145905 46 254 0.0 0.0 0.00 0.01 0.00 89 1019.4
20201026144905 46 254 0.0 0.0 0.00 0.01 0.00 89 1019.3
20201026144407 46 254 0.0 0.0 0.00 0.01 0.00 89 1019.3
20201026143911 46 123 0.0 0.0 0.00 0.01 0.00 89 1019.1
20201026142911 46 123 0.0 0.0 0.00 0.01 0.00 89 1019.0
20201026142405 46 123 0.0 0.0 0.00 0.01 0.00 89 1018.7
20201026140410 46 123 0.0 0.0 0.00 0.01 0.00 89 1019.0
20201026135405 46 123 0.0 0.0 0.00 0.01 0.00 89 1019.2
20201026134419 45 123 0.0 0.0 0.00 0.01 0.00 89 1019.4
20201026133905 45 123 0.0 0.0 0.00 0.01 0.00 89 1019.3
20201026133406 45 123 0.0 0.0 0.00 0.01 0.00 89 1019.4
20201026132406 45 123 0.0 0.0 0.00 0.01 0.00 89 1019.4
20201026131406 45 123 0.0 0.0 0.00 0.01 0.00 89 1019.3
20201026130408 45 123 0.0 0.0 0.00 0.01 0.00 89 1019.1
20201026125908 45 123 0.0 0.0 0.00 0.01 0.00 89 1019.1
20201026125405 45 123 0.0 0.0 0.00 0.01 0.00 89 1019.0
20201026124405 45 123 0.0 0.0 0.00 0.01 0.00 89 1019.0
20201026123406 45 123 0.0 0.0 0.00 0.01 0.00 89 1018.8
20201026122905 45 123 0.0 0.0 0.00 0.01 0.00 89 1018.9
20201026122405 45 123 0.0 0.0 0.00 0.01 0.00 89 1018.8
20201026121910 45 123 0.0 0.0 0.00 0.01 0.00 89 1018.8
20201026121405 45 123 0.0 0.0 0.00 0.01 0.00 89 1018.8
20201026120905 45 123 0.0 0.0 0.00 0.01 0.00 89 1018.8
20201026120405 45 123 0.0 0.0 0.00 0.01 0.00 89 1018.7
20201026115410 44 123 0.0 0.0 0.00 0.01 0.00 89 1018.6
20201026114905 44 123 0.0 0.0 0.00 0.01 0.00 89 1018.6
20201026113908 44 123 0.0 0.0 0.00 0.01 0.00 89 1018.5
20201026113406 44 123 0.0 0.0 0.00 0.01 0.00 89 1018.4
20201026112906 44 123 0.0 0.0 0.00 0.01 0.00 89 1018.2
20201026112405 44 123 0.0 0.0 0.00 0.01 0.00 89 1018.3
20201026111409 44 123 0.0 0.0 0.00 0.01 0.00 89 1018.5
20201026110905 45 123 0.0 0.0 0.00 0.01 0.00 89 1018.5
20201026110404 45 123 0.0 0.0 0.00 0.01 0.00 88 1018.5
20201026105906 45 123 0.0 0.0 0.00 0.01 0.00 88 1018.4
20201026105406 44 123 0.0 0.0 0.00 0.01 0.00 88 1018.6
20201026104905 44 123 0.0 0.0 0.00 0.01 0.00 88 1018.7
20201026103405 44 123 0.0 0.0 0.00 0.01 0.00 88 1018.0
20201026102909 44 123 0.0 0.0 0.00 0.01 0.00 88 1018.2
20201026101406 44 123 0.0 0.0 0.00 0.01 0.00 88 1018.2
20201026100411 44 123 0.0 0.0 0.00 0.01 0.00 88 1018.3
20201026095406 44 123 0.0 0.0 0.00 0.01 0.00 88 1018.1
20201026094405 44 123 0.0 0.0 0.00 0.01 0.00 88 1018.3
20201026092906 44 123 0.0 0.0 0.00 0.01 0.00 88 1018.0
20201026090404 44 123 0.0 0.0 0.00 0.01 0.00 88 1017.5
20201026085405 44 123 0.0 0.0 0.00 0.01 0.00 88 1017.8
20201026084906 44 123 0.0 0.0 0.00 0.01 0.00 88 1018.0
20201026084405 44 123 0.0 0.0 0.00 0.01 0.00 87 1018.0
20201026083913 44 123 0.0 0.0 0.00 0.01 0.00 87 1018.0
20201026083405 44 123 0.0 0.0 0.00 0.01 0.00 87 1017.9
20201026082405 44 123 0.0 0.0 0.00 0.01 0.00 87 1017.7
20201026081431 44 123 0.0 0.0 0.00 0.01 0.00 87 1017.8
20201026080927 44 123 0.0 0.0 0.00 0.01 0.00 87 1018.0
20201026080408 44 123 0.0 0.0 0.00 0.01 0.00 87 1018.0
20201026073413 45 127 0.0 0.0 0.00 0.01 0.00 86 1018.0
20201026072906 45 127 0.0 0.0 0.00 0.01 0.00 86 1017.8
20201026072407 45 127 0.0 0.0 0.00 0.01 0.00 86 1017.9
20201026071405 45 127 0.0 0.0 0.00 0.01 0.00 85 1017.9
20201026070904 45 127 0.0 0.0 0.00 0.01 0.00 85 1017.9
20201026070410 45 127 0.0 0.0 0.00 0.01 0.00 85 1017.7
20201026065404 45 127 0.0 0.0 0.00 0.01 0.00 85 1017.6
20201026064906 45 127 0.0 0.0 0.00 0.01 0.00 85 1017.6
20201026064411 45 127 0.0 0.0 0.00 0.01 0.00 84 1017.8
20201026063904 45 127 0.0 0.0 0.00 0.01 0.00 84 1017.9
20201026063425 45 127 0.0 0.0 0.00 0.01 0.00 84 1017.8
20201026062904 45 127 0.0 0.0 0.00 0.01 0.00 84 1017.8
20201026061406 45 127 0.0 0.0 0.00 0.01 0.00 84 1017.9
20201026060405 45 127 0.0 0.0 0.00 0.01 0.00 84 1017.8
20201026055908 45 127 0.0 0.0 0.00 0.01 0.00 84 1017.5
20201026054905 45 117 0.0 0.0 0.00 0.01 0.00 84 1017.2
20201026054405 45 117 0.0 0.0 0.00 0.01 0.00 84 1017.3
20201026052910 45 127 0.0 0.0 0.00 0.01 0.00 84 1017.6
20201026052405 45 123 0.0 0.0 0.00 0.01 0.00 83 1017.6
20201026051905 45 123 0.0 0.0 0.00 0.01 0.00 83 1017.5
20201026051408 45 123 0.0 0.0 0.00 0.01 0.00 83 1017.7
20201026050905 45 123 0.0 0.0 0.00 0.01 0.00 83 1017.5
20201026050406 45 123 0.0 0.0 0.00 0.01 0.00 83 1017.6
20201026044904 45 163 0.0 0.0 0.00 0.01 0.00 83 1017.8
20201026044405 45 163 0.0 0.0 0.00 0.01 0.00 83 1018.1
20201026043905 45 163 0.0 0.0 0.00 0.01 0.00 83 1018.2
20201026043405 45 163 0.0 0.0 0.00 0.01 0.00 83 1018.1
20201026042910 45 163 0.0 0.0 0.00 0.01 0.00 83 1018.1
20201026040905 45 163 0.0 0.0 0.00 0.01 0.00 83 1018.2
20201026040408 45 100 0.0 0.0 0.00 0.01 0.00 83 1018.2
20201026035904 45 100 0.0 0.0 0.00 0.01 0.01 83 1018.2
20201026034406 45 166 0.0 0.0 0.00 0.01 0.01 83 1018.3
20201026032904 45 189 0.0 0.0 0.00 0.01 0.01 83 1018.4
20201026032405 45 189 0.0 0.0 0.00 0.01 0.01 83 1018.5
20201026031907 45 189 0.0 0.0 0.00 0.01 0.01 83 1018.6
20201026030906 45 189 0.0 0.0 0.00 0.01 0.01 83 1018.8
20201026030407 45 189 0.0 0.0 0.00 0.01 0.01 83 1018.8
20201026025904 45 189 0.0 0.0 0.00 0.01 0.01 83 1018.9
20201026025409 45 189 0.0 0.0 0.00 0.01 0.01 83 1018.9
20201026024904 45 189 0.0 0.0 0.00 0.01 0.01 83 1018.9
20201026023905 45 189 0.0 0.0 0.00 0.01 0.01 83 1019.0
20201026023405 45 189 0.0 0.0 0.00 0.01 0.01 83 1019.1
20201026022406 45 189 0.0 0.0 0.00 0.01 0.01 82 1019.0
20201026021406 45 189 0.0 0.0 0.00 0.01 0.01 82 1018.9
20201026015906 45 5 0.0 0.0 0.00 0.01 0.01 82 1019.1
20201026015409 45 5 0.0 0.0 0.00 0.01 0.01 82 1019.2
20201026014907 45 5 0.0 0.0 0.00 0.01 0.01 82 1019.0
20201026014404 45 5 0.0 0.0 0.00 0.01 0.01 82 1019.0
20201026013405 45 5 0.0 0.0 0.00 0.01 0.01 82 1019.1
20201026012406 45 5 0.0 0.0 0.00 0.01 0.01 81 1019.1
20201026011905 45 5 0.0 0.0 0.00 0.01 0.01 81 1019.0
20201026011409 45 5 0.0 0.0 0.00 0.01 0.01 81 1019.0
20201026010905 45 5 0.0 0.0 0.00 0.01 0.01 81 1019.0
20201026010404 45 5 0.0 0.0 0.00 0.01 0.01 81 1018.9
20201026005909 45 5 0.0 0.0 0.00 0.01 0.01 81 1018.9
20201026003407 45 5 0.0 0.0 0.00 0.01 0.01 81 1019.3
20201026002906 45 5 0.0 0.0 0.00 0.01 0.01 81 1019.3
20201026002406 45 5 0.0 0.0 0.00 0.01 0.01 81 1019.6
20201026001412 45 5 0.0 0.0 0.00 0.01 0.01 81 1019.5
20201026000905 45 5 0.0 0.0 0.00 0.01 0.01 80 1019.3
20201026000410 45 5 0.0 0.0 0.00 0.01 0.01 80 1019.8
20201025235912 45 5 0.0 0.0 0.00 0.01 0.01 80 1019.9
20201025235409 45 5 0.0 0.0 0.00 0.01 0.01 80 1019.7
20201025234412 45 5 0.0 0.0 0.00 0.01 0.01 79 1019.8
20201025233907 45 5 0.0 0.0 0.00 0.01 0.01 78 1020.0
20201025233405 45 5 0.0 0.0 0.00 0.01 0.01 77 1019.9
20201025232405 45 5 0.0 0.0 0.00 0.01 0.01 76 1019.8
20201025231906 45 5 0.0 0.0 0.00 0.01 0.01 77 1019.8
20201025231404 45 5 0.0 0.0 0.00 0.01 0.01 76 1019.7
20201025230404 45 5 0.0 0.0 0.00 0.01 0.01 75 1019.9
20201025225906 45 5 0.0 0.0 0.00 0.01 0.01 75 1019.9
20201025224905 45 5 0.0 0.0 0.00 0.01 0.01 75 1020.0
20201025223406 45 5 0.0 0.0 0.00 0.01 0.01 74 1019.9
20201025222905 45 5 0.0 0.0 0.00 0.01 0.01 75 1019.8
20201025222404 45 5 0.0 0.0 0.00 0.01 0.01 74 1019.7
20201025221905 45 5 0.0 0.0 0.00 0.01 0.01 74 1019.7
20201025221404 46 5 0.0 0.0 0.00 0.01 0.01 74 1019.6
20201025220404 46 5 0.0 0.0 0.00 0.01 0.01 73 1019.7
20201025215904 46 5 0.0 0.0 0.00 0.01 0.01 73 1019.7
20201025214904 46 5 0.0 0.0 0.00 0.01 0.01 73 1019.8
20201025214404 46 5 0.0 0.0 0.00 0.01 0.01 72 1019.8
20201025213905 47 5 0.0 0.0 0.00 0.01 0.01 71 1019.6
20201025212907 47 5 0.0 0.0 0.00 0.01 0.01 68 1019.6
20201025212406 47 5 0.0 0.0 0.00 0.01 0.01 67 1019.6
20201025211404 47 5 0.0 0.0 0.00 0.01 0.01 65 1019.5
20201025210906 47 5 0.0 0.0 0.00 0.01 0.01 65 1019.6
20201025210404 47 5 0.0 0.0 0.00 0.01 0.01 64 1019.5